Regional Weather Roundup
Issued by NWS Goodland, KS

Home | Current Version | Previous Version | Graphics & Text | Print | Product List | Glossary On
Versions: 1 2 3 4 5 6 7 8 9 10 11 12 13 14 15 16 17 18 19 20 21 22 23 24 25 26 27 28 29 30 31 32 33 34 35 36 37 38 39 40 41 42 43 44 45 46 47 48 49 50
000
ASUS43 KGLD 232259
RWRGLD

GOODLAND FORECAST AREA HOURLY WEATHER ROUNDUP
NATIONAL WEATHER SERVICE GOODLAND KS
500 PM MDT SAT MAY 23 2015

...OFFICIAL OBSERVATIONS...

CITY           SKY/WX    TMP DP  RH WIND       PRES   REMARKS
GOODLAND KS    CLOUDY    64  56  75 SE16G26   29.88F
HILL CITY KS   CLOUDY    61  55  81 SE14G22   29.94S
IMPERIAL NEB   PTSUNNY   64  53  67 SE12      29.91F
MCCOOK NEB     CLOUDY    65  55  70 SE17      29.93S
AKRON CO       LGT RAIN  58  50  75 SW28G36   29.91R
BURLINGTON CO  CLOUDY    64  52  64 SE14      29.88F
LIMON CO       PTSUNNY   52  46  80 E16       29.91R
$$

...UNOFFICIAL OBSERVATIONS...

CITY           SKY/WX    TMP DP  RH WIND       PRES   REMARKS
COLBY KS       CLOUDY    64  57  77 SE17      29.92S
GOVE KS          N/A     63  32  31 MISG        N/A
LENORA KS        N/A     61  32  33 MISG        N/A
NORTON KS      CLOUDY    61  52  72 E18       29.95R
SHARON SPRINGS   N/A     64  57  78 MISG        N/A
KIT CARSON CO    N/A     55  47  74 MISG        N/A
$$


USA.gov is the U.S. government's official web portal to all federal, state and local government web resources and services.